Kelso, MO

7:05 AM CDT on July 28, 2016 (GMT -0500)
Cape Girardeau Regional

Weather History for KCGI - July, 2013

Change the Weather History Date:

Monday, July 1, 2013

  Actual Average Record
Temperature  
Mean Temperature 70 °F 78 °F  
Max Temperature 75 °F 89 °F 103 °F (2012)
Min Temperature 65 °F 68 °F 57 °F (1976)
Degree Days  
Heating Degree Days 0 0  
Month to date heating degree days 0 0  
Since 1 June heating degree days 0 4  
Since 1 July heating degree days 0 0  
Cooling Degree Days 5 13  
Month to date cooling degree days 5 13  
Year to date cooling degree days 509 477  
Since 1 June cooling degree days 338 325  
Growing Degree Days 18 (Base 50)    
Moisture  
Dew Point 63 °F    
Average Humidity 81    
Maximum Humidity 93    
Minimum Humidity 68    
Precipitation  
Precipitation 0.05 in 0.11 in 1.10 in (1987)
Month to date precipitation 0.05 0.11  
Year to date precipitation 23.98 24.78  
Sea Level Pressure  
Sea Level Pressure 29.89 in    
Wind  
Wind Speed 10 mph (North)    
Max Wind Speed 21 mph    
Max Gust Speed 28 mph    
Visibility 9 miles    
Events Rain    
T = Trace of Precipitation, MM = Missing Value Source: NWS Daily Summary

Daily Weather History Graph

Daily Weather History Graph

Search for Another Location

Airport or City:

Trip Planner

Search our weather history database for the weather conditions in past years. The results will help you decide how hot, cold, wet, or windy it might be!

Date:

Astronomy

Jul. 01, 2013 Rise Set
Actual Time 5:41 AM CDT 8:22 PM CDT
Civil Twilight 5:10 AM CDT 8:53 PM CDT
Nautical Twilight 4:32 AM CDT 9:31 PM CDT
Astronomical Twilight 3:49 AM CDT 10:14 PM CDT
Moon 1:06 AM CDT (7/1) 2:42 PM CDT (7/1)
Length of Visible Light 15h 42m
Length of Day
14h 40m
Waning Crescent, 35% of the Moon is Illuminated
Jul 1
Waning Crescent
Jul 8
New
Jul 15
First Quarter
Jul 22
Full
Jul 29
Last Quarter

Hourly Weather History & Observations

Time (CDT) Temp. Dew Point Humidity Pressure Visibility Wind Dir Wind Speed Gust Speed Precip Events Conditions
12:53 AM 69.1 °F 64.0 °F 84% 29.85 in 10.0 mi North 5.8 mph - N/A   Mostly Cloudy
1:24 AM 69.8 °F 64.4 °F 83% 29.85 in 10.0 mi North 8.1 mph - N/A   Overcast
1:53 AM 68.0 °F 64.0 °F 87% 29.83 in 10.0 mi North 9.2 mph - 0.00 in Rain Light Rain
2:13 AM 68.0 °F 64.4 °F 88% 29.84 in 10.0 mi North 4.6 mph - 0.00 in   Overcast
2:53 AM 68.0 °F 64.0 °F 87% 29.83 in 10.0 mi North 8.1 mph - 0.00 in   Overcast
3:22 AM 68.0 °F 64.4 °F 88% 29.84 in 10.0 mi North 8.1 mph - N/A   Overcast
3:53 AM 68.0 °F 64.0 °F 87% 29.83 in 10.0 mi North 8.1 mph - N/A   Overcast
4:53 AM 66.9 °F 64.0 °F 90% 29.84 in 10.0 mi NNW 8.1 mph - 0.00 in Rain Light Rain
5:53 AM 66.9 °F 63.0 °F 87% 29.86 in 10.0 mi NNW 6.9 mph - 0.00 in   Overcast
6:29 AM 66.2 °F 62.6 °F 88% 29.87 in 10.0 mi North 9.2 mph - N/A   Overcast
6:53 AM 66.0 °F 63.0 °F 90% 29.87 in 5.0 mi North 11.5 mph - 0.00 in Rain Light Rain
7:53 AM 66.0 °F 63.0 °F 90% 29.88 in 10.0 mi North 9.2 mph - 0.01 in   Overcast
8:53 AM 66.0 °F 62.1 °F 87% 29.89 in 9.0 mi North 12.7 mph - 0.00 in Rain Light Rain
9:53 AM 66.9 °F 63.0 °F 87% 29.90 in 10.0 mi North 10.4 mph - 0.00 in Rain Light Rain
10:53 AM 66.0 °F 62.1 °F 87% 29.91 in 10.0 mi NNW 10.4 mph - 0.00 in   Overcast
11:42 AM 69.8 °F 62.6 °F 78% 29.92 in 10.0 mi North 8.1 mph - N/A   Overcast
11:53 AM 71.1 °F 63.0 °F 75% 29.91 in 10.0 mi NNE 10.4 mph - N/A   Overcast
12:38 PM 73.4 °F 62.6 °F 69% 29.91 in 10.0 mi North 11.5 mph - N/A   Scattered Clouds
12:53 PM 73.9 °F 63.0 °F 68% 29.90 in 10.0 mi North 12.7 mph 20.7 mph N/A   Mostly Cloudy
1:13 PM 71.6 °F 62.6 °F 73% 29.90 in 10.0 mi North 12.7 mph 20.7 mph N/A   Mostly Cloudy
1:23 PM 71.6 °F 62.6 °F 73% 29.91 in 10.0 mi North 12.7 mph - N/A   Overcast
1:53 PM 69.1 °F 63.0 °F 81% 29.90 in 6.0 mi North 13.8 mph 23.0 mph 0.00 in Rain Light Rain
2:53 PM 73.0 °F 63.0 °F 71% 29.90 in 10.0 mi North 11.5 mph - 0.00 in   Overcast
3:53 PM 72.0 °F 64.0 °F 76% 29.90 in 10.0 mi NNE 15.0 mph - 0.00 in   Mostly Cloudy
4:53 PM 73.9 °F 63.0 °F 68% 29.89 in 10.0 mi North 18.4 mph - N/A   Overcast
5:10 PM 71.6 °F 62.6 °F 73% 29.90 in 10.0 mi NNE 12.7 mph 25.3 mph N/A   Overcast
5:53 PM 71.1 °F 62.1 °F 73% 29.91 in 10.0 mi North 12.7 mph - N/A   Overcast
6:53 PM 69.1 °F 62.1 °F 78% 29.92 in 10.0 mi North 6.9 mph - N/A   Overcast
7:48 PM 66.2 °F 64.4 °F 94% 29.94 in 2.5 mi NNW 5.8 mph - 0.02 in Rain Rain
7:53 PM 66.0 °F 64.0 °F 93% 29.94 in 3.0 mi NNW 5.8 mph - 0.03 in Rain Rain
8:25 PM 66.2 °F 64.4 °F 94% 29.94 in 9.0 mi NW 5.8 mph - 0.01 in   Overcast
8:53 PM 66.0 °F 64.0 °F 93% 29.93 in 8.0 mi NW 8.1 mph - 0.01 in Rain Light Rain
9:15 PM 66.2 °F 64.4 °F 94% 29.93 in 8.0 mi NNW 5.8 mph - 0.00 in   Overcast
9:53 PM 66.0 °F 64.0 °F 93% 29.93 in 9.0 mi NNW 8.1 mph - 0.00 in   Overcast
10:53 PM 64.9 °F 63.0 °F 93% 29.93 in 9.0 mi NW 4.6 mph - N/A   Partly Cloudy
11:53 PM 64.9 °F 62.1 °F 90% 29.92 in 10.0 mi NW 4.6 mph - N/A   Scattered Clouds